Regional Weather Roundup
Issued by NWS Green Bay, WI

Home | Current Version | Previous Version | Graphics & Text | Print | Product List | Glossary Off
Versions: 1 2 3 4 5 6 7 8 9 10 11 12 13 14 15 16 17 18 19 20 21 22 23 24 25 26 27 28 29 30 31 32 33 34 35 36 37 38 39 40 41 42 43 44 45 46 47 48 49 50

000
ASUS43 KGRB 260011
RWRGRB

NORTH-CENTRAL AND NORTHEAST WISCONSIN REGIONAL WEATHER ROUNDUP
NATIONAL WEATHER SERVICE GREEN BAY WI
700 PM CDT SAT MAR 25 2017

WIZ005-009-010>012-018-019-260100-
NORTH CENTRAL WISCONSIN

CITY           SKY/WX    TMP DP  RH WIND       PRES   REMARKS
IRONWOOD       CLOUDY    37  30  75 E10       30.16F
MANITOWISH WTR CLOUDY    36  31  83 E7        30.13F
ARBOR VITAE    CLOUDY    39  31  72 E5        30.12F
EAGLE RIVER    CLOUDY    37  29  71 E7        30.13F
LAND O LAKES   CLOUDY    37  30  77 E7        30.16F
RHINELANDER    CLOUDY    38  30  73 E14       30.13F
PHILLIPS       CLOUDY    38  31  74 E10       30.11S
ANTIGO         CLOUDY    32  30  92 E14G23    30.14R FOG
TOMAHAWK       CLOUDY    37  29  75 E7        30.13S
MERRILL        CLOUDY    37  31  79 E10G17    30.12S
$$

WIZ013-073-260100-
NORTHEAST WISCONSIN

CITY           SKY/WX    TMP DP  RH WIND       PRES   REMARKS
IRON MOUNTAIN  CLOUDY    37  25  61 E13G20    30.19S
MARINETTE        N/A    N/A N/A N/A MISG        N/A
OCONTO         CLOUDY    33  32  94 NE9       30.18S
$$

WIZ017-030-035>037-045-260100-
CENTRAL WISCONSIN

CITY           SKY/WX    TMP DP  RH WIND       PRES   REMARKS
MEDFORD        DRIZZLE   36  31  83 E13G18    30.09R
WAUSAU         LGT RAIN  33  31  92 E10       30.11R FOG
MOSINEE        LGT RAIN  34  32  93 E13G23    30.13R
MARSHFIELD     LGT RAIN  34  32  92 E15       30.08S FOG
WISC RAPIDS    CLOUDY    34  34 100 E15G22    30.11S
STEVENS POINT  MIX PCPN  32  32 100 E13G18    30.12S
WAUPACA        DRIZZLE   36  34  92 NE7G16    30.14R
SHAWANO        DRIZZLE   35  32  89 NE12      30.16F
CLINTONVILLE   DRIZZLE   32  32 100 NE9       30.15R
WAUTOMA        CLOUDY    35  34  96 NE14      30.10F FOG
$$

WIZ038-039-048-051-260100-
FOX VALLEY

CITY           SKY/WX    TMP DP  RH WIND       PRES   REMARKS
NWS GREEN BAY  LGT RAIN  35  35 100 NE16      30.15S FOG
APPLETON       NOT AVBL
OSHKOSH        CLOUDY    36  35  96 NE10      30.10S FOG
FOND DU LAC    LGT RAIN  38  35  89 E16       30.09S
$$

WIZ022-050-052-260100-
EAST CENTRAL WISCONSIN

CITY           SKY/WX    TMP DP  RH WIND       PRES   REMARKS
EPHRAIM        CLOUDY    34  32  93 NE10G17   30.18S
WASHINGTON ISL CLOUDY    33  28  83 E12G18    30.21S
STURGEON BAY   MIX PCPN  35  33  92 NE9       30.18R
MANITOWOC      LGT RAIN  38  36  92 NE7       30.14R
SHEBOYGAN      CLOUDY    37  35  92 NE14      30.11S
$$

LMZ563-521-522-541>543-260100-
LAKESHORE

STATION/POSITION TIME  TEMP    WIND        PRES    VSBY  WAVE
                       AIR SEA DIR/SP/G                  HT/PER
                 (UTC) (F)     (DEG/KT/KT) (MB)    (MI)  (FT/S)
SHEBOYGAN LKSHOR 0000   37      30/ 16/ 17 1020.0F
KEWAUNEE LKSHORE 2348   36      40/ 12/ 15 1020.6R
NORTHPORT PIER   2340   35      50/ 16/ 22 1023.0S
CHAMBERS ISLAND  2340   33      30/ 13/ 20 1022.0S
MENOMINEE LKSHOR 2348   33      30/ 18/ 21 1021.6R
$$




USA.gov is the U.S. government's official web portal to all federal, state and local government web resources and services.